FW1782 Weather Reports


time (UTC)temp
C
wind
direction
speed
KPH
gust
KPH
rain 1hr
cm
rain 24hr
cm
rain mn
cm
humidity
%
barometer
mb
20260502224603 16 359 12.9 27.4 0.00 0.00 0.00 31 1017.2
20260502223059 16 359 14.5 33.8 0.00 0.00 0.00 31 1017.2
20260502221557 16 359 9.7 20.9 0.00 0.00 0.00 32 1017.4
20260502220051 16 359 11.3 25.7 0.00 0.00 0.00 32 1017.6
20260502214528 16 359 11.3 30.6 0.00 0.00 0.00 30 1017.8
20260502213023 16 359 8.0 20.9 0.00 0.00 0.00 30 1017.9
20260502211518 16 359 12.9 32.2 0.00 0.00 0.00 30 1018.2
20260502210120 16 359 9.7 30.6 0.00 0.00 0.00 30 1018.3
20260502204559 16 359 16.1 35.4 0.00 0.00 0.00 31 1018.5
20260502203054 16 359 11.3 27.4 0.00 0.00 0.00 31 1018.8
20260502201550 16 359 8.0 22.5 0.00 0.00 0.00 30 1019.0
20260502200045 15 359 9.7 32.2 0.00 0.00 0.00 33 1019.2
20260502194524 16 359 19.3 32.2 0.00 0.00 0.00 33 1019.4
20260502193019 15 359 11.3 30.6 0.00 0.00 0.00 33 1019.5
20260502191513 15 359 16.1 25.7 0.00 0.00 0.00 34 1019.8
20260502190113 15 359 6.4 24.1 0.00 0.00 0.00 33 1020.0
20260502184602 15 359 4.8 17.7 0.00 0.00 0.00 31 1020.3
20260502183047 15 359 9.7 22.5 0.00 0.00 0.00 34 1020.5
20260502181548 14 359 11.3 25.7 0.00 0.00 0.00 33 1020.8
20260502170104 13 359 9.7 25.7 0.00 0.00 0.00 35 1021.5
20260502163043 12 359 9.7 19.3 0.00 0.00 0.00 37 1021.8
20260502161554 12 359 6.4 24.1 0.00 0.00 0.00 37 1021.9
20260502151501 11 359 6.4 19.3 0.00 0.00 0.00 46 1022.2
20260502130112 5 359 4.8 12.9 0.00 0.00 0.00 75 1022.6
20260502123042 2 359 4.8 8.0 0.00 0.00 0.00 84 1022.5
20260502121518 1 359 3.2 4.8 0.00 0.00 0.00 89 1022.5
20260502120138 0 359 0.0 4.8 0.00 0.00 0.00 91 1022.3
20260502114555 0 359 0.0 4.8 0.00 0.00 0.00 92 1022.1
20260502113047 0 359 1.6 3.2 0.00 0.00 0.00 91 1022.0
20260502111540 0 359 0.0 3.2 0.00 0.00 0.00 91 1022.0
20260502110018 0 359 0.0 3.2 0.00 0.00 0.00 91 1021.8
20260502104512 0 359 1.6 3.2 0.00 0.00 0.00 91 1021.8
20260502103011 0 359 0.0 0.0 0.00 0.00 0.00 91 1021.7
20260502101502 0 359 0.0 1.6 0.00 0.00 0.00 90 1021.7
20260502091530 0 359 0.0 0.0 0.00 0.00 0.00 88 1021.6
20260502071524 1 359 0.0 0.0 0.00 0.00 0.00 81 1021.6
20260502070120 1 359 0.0 1.6 0.00 0.00 0.00 80 1021.7
20260502064558 1 359 1.6 3.2 0.00 0.00 0.00 80 1021.8
20260502063059 1 359 0.0 0.0 0.00 0.00 0.00 80 1021.9
20260502061546 2 359 0.0 1.6 0.00 0.00 0.00 80 1021.8
20260502060025 2 359 0.0 0.0 0.00 0.00 0.00 80 1021.8
20260502054522 2 359 0.0 0.0 0.00 0.00 0.00 77 1021.7
20260502053014 3 359 0.0 0.0 0.00 0.00 0.00 72 1021.6
20260502051515 3 359 0.0 3.2 0.00 0.00 0.00 70 1021.5
20260502050109 3 359 1.6 3.2 0.00 0.00 0.00 68 1021.5
20260502044547 4 359 0.0 3.2 0.00 0.00 0.00 66 1021.4
20260502043046 4 359 1.6 3.2 0.00 0.00 0.00 64 1021.3
20260502041536 5 359 0.0 4.8 0.00 0.00 0.00 63 1021.3
20260502040014 5 359 1.6 3.2 0.00 0.00 0.00 61 1021.3
20260502034512 5 359 3.2 8.0 0.00 0.00 0.00 58 1021.2
20260502033006 6 359 3.2 6.4 0.00 0.00 0.00 56 1021.0
20260502031602 6 359 1.6 6.4 0.00 0.00 0.00 55 1020.9
20260502030058 6 359 3.2 6.4 0.00 0.00 0.00 54 1020.7
20260502024541 7 359 3.2 6.4 0.00 0.00 0.00 54 1020.5
20260502023030 7 359 3.2 8.0 0.00 0.00 0.00 53 1020.3
20260502021525 7 359 3.2 6.4 0.00 0.00 0.00 52 1020.1
20260502020003 8 359 3.2 6.4 0.00 0.00 0.00 50 1020.0
20260502014601 8 359 4.8 8.0 0.00 0.00 0.00 49 1019.8
20260502013058 8 359 3.2 8.0 0.00 0.00 0.00 48 1019.7
20260502011551 9 359 4.8 14.5 0.00 0.00 0.00 46 1019.4
20260502010053 10 359 6.4 12.9 0.00 0.00 0.00 45 1019.2
20260502004545 10 359 6.4 16.1 0.00 0.00 0.00 44 1019.0
20260502003020 10 359 14.5 24.1 0.00 0.00 0.00 42 1018.9
20260502001517 11 359 8.0 20.9 0.00 0.00 0.00 41 1018.7
20260502000120 11 359 8.0 25.7 0.00 0.00 0.00 42 1018.6
20260501234552 11 359 11.3 19.3 0.00 0.00 0.00 41 1018.6
20260501233050 11 359 8.0 19.3 0.00 0.00 0.00 41 1018.6
20260501231544 11 359 9.7 17.7 0.00 0.00 0.00 41 1018.5
20260501230017 11 359 12.9 17.7 0.00 0.00 0.00 42 1018.6